Carbon Glow, Kentucky
Current Conditions -  °F | °C
As of 3:55 AM on Saturday 25 Oct 2014 (Local Time) from KLNP Reporting Station
Clear Clear  
Wind Chill: 43°   Ceiling: Unl
Heat Index: 43°   Visibility: 10mi
Dew Point: 36°   Wind: 3mph
Humidity: 76%   Direction: 210°SSW
Pressure: 30.08"   Gusts: NA
Location:  37.1619°N, 82.9955°W
Report Text: KLNP 250755Z AUTO 21003KT 10SM CLR 06/02 A3008 RMK AO2
Loading
Personal Weather Stations






























Interactive Weather Map
Tropical Storm Tracking
New forecast layout! Learn more

10-Day Weather Forecast

Advertisements
Track Severe Weather on mobile